Tracking 29892 objects as of 21-Nov-2024
HD Live streaming from Space Station
objects crossing your sky now

SL-19 R/B

Track SL-19 R/B now!
10-day predictions


NORAD ID: 29269
Int'l Code: 2006-031B
Perigee: 492.0 km
Apogee: 650.1 km
Inclination: 98.2 °
Period: 95.9 minutes
Semi major axis: 6942 km
RCS: 5.373 m2 (large)
Launch date: July 28, 2006
Source: Commonwealth of Independent States (former USSR) (CIS)
Launch site: PLESETSK MISSILE AND SPACE COMPLEX (PKMTR)

Note: This is a ROCKET BODY
Your satellite tracking list
IRIDIUM 172
Track 1 satellite(s)




NASA's NSSDC Master Catalog

Two Line Element Set (TLE):
1 29269U 06031B   24325.79491453  .00005290  00000-0  36652-3 0  9997
2 29269  98.2151 270.4907 0113862 262.9554  95.8708 15.00960445997881
Source of the keplerian elements: AFSPC